Location: Three Guys Observatory
(38.6418°N, 87.1521°W)
Time: 02:33:51
(UTC-05:00)

ISS - Visible Passes

Search period start: 21 February 2018 00:00
Search period end: 03 March 2018 00:00
Orbit: 402 x 407 km, 51.6° (Epoch: 21 February)

Date Brightness Start Highest point End Pass type
(mag) Time Alt. Az. Time Alt. Az. Time Alt. Az.
24 Feb -0.9 06:40:54 10° S 06:43:10 18° SE 06:45:26 10° E visible
26 Feb -2.7 06:31:42 10° SSW 06:34:51 45° SE 06:37:59 10° ENE visible
27 Feb -1.6 05:41:10 16° S 05:42:40 22° SE 05:45:17 10° ENE visible
28 Feb -0.4 04:51:36 10° ESE 04:51:36 10° ESE 04:51:39 10° ESE visible
28 Feb -3.8 06:24:17 17° WSW 06:26:37 67° NW 06:29:53 10° NE visible
01 Mar -3.3 05:34:31 57° ESE 05:34:31 57° ESE 05:37:33 10° ENE visible
02 Mar -0.4 04:44:35 12° ENE 04:44:35 12° ENE 04:44:57 10° ENE visible
02 Mar -2.7 06:17:15 22° WNW 06:18:30 30° NNW 06:21:28 10° NNE visible
